Regional Weather Roundup
Issued by NWS

Home | Current Version | Previous Version | Graphics & Text | Print | Product List | Glossary On
Versions: 1 2 3 4 5 6 7 8 9 10 11 12 13 14 15 16 17 18 19 20 21 22 23 24 25 26 27 28 29 30 31 32 33 34 35 36 37 38 39 40 41 42 43 44 45 46 47 48 49 50
000
ASUS44 KMEG 030400
RWRTN
TENNESSEE HOURLY STATE WEATHER ROUNDUP
NATIONAL WEATHER SERVICE MEMPHIS TN
1100 PM CDT WED SEP 02 2015

TNZ002-004-019-021-049-052-054-088>092-030500-
WEST TENNESSEE

CITY           SKY/WX    TMP DP  RH WIND       PRES   REMARKS
MEMPHIS INTL   CLEAR     77  71  82 CALM      30.01S
NWS MEMPHIS      N/A     74 N/A N/A MISG        N/A
JACKSON        CLEAR     73  70  90 CALM      30.02S
DYERSBURG      CLEAR     73  72  94 CALM      30.03R
UNION CITY     PTCLDY    73  73 100 CALM      30.01S
PARIS          CLEAR     70  66  88 CALM      30.04S
LEXINGTON      CLEAR     72  72 100 CALM      30.02S
$$

TNZ008-025-027-028-033-062-065-066-030500-
NORTH MIDDLE TENNESSEE

CITY           SKY/WX    TMP DP  RH WIND       PRES   REMARKS
NASHVILLE      MOCLDY    79  69  71 CALM      30.03S
CLARKSVILLE    CLEAR     73  68  84 CALM      30.03R
COOKEVILLE     CLEAR     70  70 100 CALM      30.05S
CROSSVILLE     MOCLDY    72  68  87 CALM      30.11S
$$

TNZ061-075-076-078-094-096-097-030500-
SOUTH MIDDLE TENNESSEE

CITY           SKY/WX    TMP DP  RH WIND       PRES   REMARKS
FAYETTEVILLE   CLEAR     73  72  94 CALM      30.05S
TULLAHOMA      CLEAR     73  70  88 CALM      30.05F
WINCHESTER     CLEAR     73  72  94 CALM      30.05S
MCMINNVILLE    CLEAR     75  75 100 CALM      30.06S
COLUMBIA       CLEAR     75  75 100 CALM      30.02S
SHELBYVILLE    CLEAR     75  73  94 CALM      30.04F
$$

TNZ017-018-042-046-047-030500-
NORTHEAST TENNESSEE

CITY           SKY/WX    TMP DP  RH WIND       PRES   REMARKS
TRI CITIES     PTCLDY    69  65  86 N3        30.08S
ELIZABETHTON   CLEAR     64  63  94 CALM      30.09F
$$

TNZ012-013-036-069-073-074-030500-
CENTRAL EAST TENNESSEE

CITY           SKY/WX    TMP DP  RH WIND       PRES   REMARKS
KNOXVILLE      CLOUDY    77  69  76 CALM      30.03F
OAK RIDGE      MOCLDY    75  71  87 CALM      30.05F
GATLINBURG     CLEAR     73  66  78 CALM      30.04F
$$

TNZ083-085-099-030500-
SOUTHEAST TENNESSEE

CITY           SKY/WX    TMP DP  RH WIND       PRES   REMARKS
CHATTANOOGA    CLOUDY    78  72  81 E3        30.02F
$$

SKY/WX REPORTED AS FAIR MEANS FEW OR NO CLOUDS BELOW
12 THOUSAND FEET.




USA.gov is the U.S. government's official web portal to all federal, state and local government web resources and services.